Location: Aragnouet
(42.7874°N, 0.2165°E)
Time: 01:54:16
(UTC+00:00)

USA 245 - Pass Details

Date: 09 April 2020
Orbit: 269 x 1016 km, 97.9° (Epoch: 01 June)

Event Time Altitude Azimuth Distance (km) Brightness Sun altitude
Exits shadow 21:07:20 60° 167° (SSE) 1,053 4.3 -25.7°
Maximum altitude 21:08:31 90° 256° (WSW) 952 4.3 -25.9°
Drops below altitude 10° 21:14:58 10° 347° (NNW) 2,799 7.6 -26.8°
Sets 21:17:35 0° 348° (NNW) 3,774 8.4 -27.1°
